Location: Kaarina
(60.4167°N, 22.4167°E)
Time: 08:25:09
(UTC+03:00)

NOSS 3-1 (C) - Pass Details

Date: 24 August 2019
Orbit: 775 x 1433 km, 63.4° (Epoch: 01 September)

Event Time Altitude Azimuth Distance (km) Brightness Sun altitude
Rises 21:51:56 0° 301° (WNW) 3,783 9.2 -6.4°
Reaches altitude 10° 21:54:24 10° 299° (WNW) 2,917 7.8 -6.6°
Maximum altitude 22:01:20 66° 219° (SW) 1,309 4.2 -7.3°
Drops below altitude 10° 22:09:25 10° 140° (SE) 3,370 5.7 -8.1°
Enters shadow 22:09:45 - 140° (SE) 3,481 5.7 -8.1°
